Weather History for Spirit of St Louis, MO

Change the Weather History Date:

Sunday, May 19, 2013

  Actual Average Record
Temperature  
Mean Temperature 78 °F -  
Max Temperature 90 °F 74 °F 90 °F (1998)
Min Temperature 66 °F 52 °F 39 °F (2002)
Cooling Degree Days 13    
Growing Degree Days 28 (Base 50)    
Moisture  
Dew Point 67 °F    
Average Humidity 66    
Maximum Humidity 90    
Minimum Humidity 46    
Precipitation  
Precipitation 0.00 in - - ()
Sea Level Pressure  
Sea Level Pressure 29.78 in    
Wind  
Wind Speed 6 mph (SSE)    
Max Wind Speed 14 mph    
Max Gust Speed 25 mph    
Visibility 9 miles    
Events      
Averages and records for this station are not official NWS values.
T = Trace of Precipitation, MM = Missing Value Source: NWS Daily Summary

Daily Weather History Graph

Daily Weather History Graph

Search for Another Location

Airport:

Trip Planner

Search our weather history database for the weather conditions in past years. The results will help you decide how hot, cold, wet, or windy it might be!

Date:

Astronomy

May. 19, 2013 Rise Set
Actual Time 5:47 AM CDT 8:11 PM CDT
Civil Twilight 5:16 AM CDT 8:41 PM CDT
Nautical Twilight 4:39 AM CDT 9:19 PM CDT
Astronomical Twilight 3:58 AM CDT 10:00 PM CDT
Moon 2:19 PM CDT (5/19) 2:06 AM CDT (5/19)
Length of Visible Light 15h 24m
Length of Day
14h 24m
Waxing Gibbous, 65% of the Moon is Illuminated
May 19
Waxing Gibbous
May 24
Full
May 31
Last Quarter
Jun 8
New
Jun 16
First Quarter

Hourly Weather History & Observations

Time (CDT) Temp. Heat Index Dew Point Humidity Pressure Visibility Wind Dir Wind Speed Gust Speed Precip Events Conditions
12:54 AM 72.0 °F - 64.0 °F 76% 29.86 in 10.0 mi ESE 6.9 mph - N/A   Mostly Cloudy
1:54 AM 73.0 °F - 64.9 °F 76% 29.86 in 10.0 mi Calm Calm - N/A   Overcast
2:54 AM 71.1 °F - 64.0 °F 78% 29.84 in 10.0 mi ESE 3.5 mph - N/A   Partly Cloudy
3:54 AM 72.0 °F - 64.9 °F 78% 29.87 in 10.0 mi Calm Calm - N/A   Mostly Cloudy
4:54 AM 69.1 °F - 64.9 °F 87% 29.84 in 9.0 mi ENE 3.5 mph - N/A   Partly Cloudy
5:54 AM 66.9 °F - 64.0 °F 90% 29.84 in 5.0 mi Calm Calm - N/A   Scattered Clouds
6:54 AM 71.6 °F - 66.2 °F 83% 29.84 in 8.0 mi ESE 4.6 mph - N/A   Clear
7:54 AM 73.0 °F - 66.9 °F 81% 29.83 in 8.0 mi Variable 3.5 mph - N/A   Overcast
8:54 AM 75.9 °F - 69.1 °F 79% 29.85 in 8.0 mi SSW 5.8 mph - N/A   Overcast
9:54 AM 77.0 °F - 70.0 °F 79% 29.88 in 8.0 mi WSW 9.2 mph - N/A   Overcast
10:54 AM 82.0 °F 86.3 °F 71.1 °F 69% 29.85 in 8.0 mi West 3.5 mph - N/A   Clear
11:54 AM 84.9 °F 90.1 °F 71.1 °F 63% 29.81 in 10.0 mi SE 4.6 mph - N/A   Clear
12:54 PM 87.1 °F 92.8 °F 71.1 °F 59% 29.78 in 10.0 mi SSE 10.4 mph - N/A   Mostly Cloudy
1:54 PM 89.6 °F 96.2 °F 71.6 °F 55% 29.78 in 9.0 mi SSE 8.1 mph - N/A   Partly Cloudy
2:54 PM 89.6 °F 94.7 °F 69.8 °F 52% 29.75 in 9.0 mi South 13.8 mph 19.6 mph N/A   Scattered Clouds
3:54 PM 90.0 °F 95.4 °F 70.0 °F 52% 29.70 in 9.0 mi SSE 10.4 mph 23.0 mph N/A   Scattered Clouds
4:54 PM 90.0 °F 93.6 °F 68.0 °F 48% 29.69 in 10.0 mi SSE 11.5 mph 25.3 mph N/A   Partly Cloudy
5:54 PM 89.1 °F 92.1 °F 66.9 °F 48% 29.68 in 10.0 mi SSE 12.7 mph 20.7 mph N/A   Scattered Clouds
6:54 PM 86.0 °F 88.2 °F 66.0 °F 51% 29.66 in 10.0 mi SSE 12.7 mph 20.7 mph N/A   Clear
7:54 PM 84.0 °F 84.4 °F 61.0 °F 46% 29.68 in 10.0 mi SSE 10.4 mph 18.4 mph N/A   Clear
8:54 PM 82.0 °F 83.0 °F 62.1 °F 51% 29.70 in 10.0 mi South 6.9 mph - N/A   Scattered Clouds
9:54 PM 80.1 °F 81.5 °F 63.0 °F 56% 29.74 in 10.0 mi South 5.8 mph - N/A   Clear
10:54 PM 80.1 °F 81.7 °F 64.0 °F 58% 29.77 in 10.0 mi SSW 9.2 mph 19.6 mph N/A   Clear
11:54 PM 79.0 °F - 66.0 °F 64% 29.74 in 10.0 mi South 8.1 mph - N/A   Clear